Location: Unspecified
(0.0000°N, 0.0000°E)
Time: 17:47:24
(UTC+00:00)

STARLINK 1027 - Pass Details

Date: 18 January 2020
Orbit: 401 x 403 km, 53.0° (Epoch: 18 January)

Event Time Altitude Azimuth Distance (km) Brightness Sun altitude
Rises 03:51:20 0° 166° (SSE) 2,310 7.3 -32.2°
Enters shadow 05:13:46 -29° 217° (SW) 6,994 9.1 -13.2°
Maximum altitude 05:30:53 40° 304° (NW) 607 3.4 -9.2°
